DW9679 Alicante ES current weather conditions

sailwx.info

Wind from 349

Air temperature 10.6° C
Dewpoint 9.3° C

Last reported at 2020-Jan-24 21:51 UTC.
Time now 2020-Jan-24 22:22 UTC

Location: N 38°15' W 000°35'.
View on Google Maps.

See reports from other nearby stations

  
Tides and Currents Weather Stations Pressure Air Temp Water Temp Dewpoint Dewpoint Depression Visibility Wind Speed Wind Dir Waves Ship Positions
date/time (UTC)wind fromknots sea level pressurealtimeterstation pressurevisibilityair tempwater tempwave heightnotes
2020-Jan-24 22:01 325 10.6
2020-Jan-24 21:51 349 10.6
2020-Jan-24 21:46 340 10.6
2020-Jan-24 21:41 339 10.6
2020-Jan-24 21:36 333 10.6
2020-Jan-24 21:31 333 10.6
2020-Jan-24 21:26 308 10.6
2020-Jan-24 21:21 349 10.6
2020-Jan-24 21:16 284 10.6
2020-Jan-24 21:11 293 10.6
2020-Jan-24 21:06 300 10.6
2020-Jan-24 21:02 305 11.1
2020-Jan-24 20:56 266 11.1
2020-Jan-24 20:51 300 11.1
2020-Jan-24 20:46 325 11.1
2020-Jan-24 20:41 326 11.1
2020-Jan-24 20:36 305 11.7
2020-Jan-24 20:31 305 11.7
2020-Jan-24 20:26 305 12.2
2020-Jan-24 20:21 305 12.2
2020-Jan-24 20:16 015 12.2
2020-Jan-24 20:11 023 12.2
2020-Jan-24 20:06 356 12.2
2020-Jan-24 20:01 359 12.2
2020-Jan-24 19:56 001 12.8
2020-Jan-24 19:51 026 12.8
2020-Jan-24 19:46 008 12.8
2020-Jan-24 19:41 008 12.8
2020-Jan-24 19:36 008 12.8
2020-Jan-24 19:31 018 12.2
2020-Jan-24 19:26 031 12.2
2020-Jan-24 19:21 044 12.2
2020-Jan-24 19:16 346 12.2
2020-Jan-24 19:11 079 12.2
2020-Jan-24 19:01 039 12.2
2020-Jan-24 18:56 338 12.2
2020-Jan-24 18:51 305 12.2
2020-Jan-24 18:46 319 12.2
2020-Jan-24 18:41 020 12.2
2020-Jan-24 18:36 029 12.2
2020-Jan-24 18:31 029 12.2
2020-Jan-24 18:26 056 12.2
2020-Jan-24 18:21 020 12.2
2020-Jan-24 18:16 006 12.2
2020-Jan-24 18:11 032 12.2
2020-Jan-24 18:06 022 12.2
2020-Jan-24 18:01 030 12.2
2020-Jan-24 17:56 017 12.2
2020-Jan-24 17:51 090 12.2
2020-Jan-24 17:46 029 12.8
2020-Jan-24 17:41 012 12.8
2020-Jan-24 17:36 020 12.8
2020-Jan-24 17:31 354 12.8
2020-Jan-24 17:26 349 12.8
2020-Jan-24 15:11 005 15.0
2020-Jan-24 15:06 283 15.0
2020-Jan-24 15:01 228 15.0
2020-Jan-24 14:56 013 15.0
2020-Jan-24 14:51 056 15.0
2020-Jan-24 14:46 354 15.0
2020-Jan-24 14:41 018 15.0
2020-Jan-24 14:36 093 15.6
2020-Jan-24 14:32 274 15.6
2020-Jan-24 14:26 026 15.6
2020-Jan-24 14:21 354 15.6
2020-Jan-24 14:16 040 15.6
2020-Jan-24 14:11 022 15.6
2020-Jan-24 14:06 018 15.6
2020-Jan-24 14:01 054 15.6
2020-Jan-24 13:56 039 15.6
2020-Jan-24 13:51 006 15.6
2020-Jan-24 13:46 065 15.6
2020-Jan-24 13:41 011 15.6
2020-Jan-24 13:36 011 15.6
2020-Jan-24 13:31 340 15.6
2020-Jan-24 13:26 023 15.6
2020-Jan-24 13:21 019 15.6
2020-Jan-24 13:16 335 15.6
2020-Jan-24 13:11 023 15.6
2020-Jan-24 13:06 068 15.6
2020-Jan-24 13:01 333 15.0
2020-Jan-24 12:56 026 15.0
2020-Jan-24 12:51 085 15.0
2020-Jan-24 12:46 018 15.0
2020-Jan-24 12:41 345 15.0
2020-Jan-24 12:36 065 15.0
2020-Jan-24 12:31 092 15.0
2020-Jan-24 12:26 345 14.4
2020-Jan-24 12:21 011 14.4
2020-Jan-24 12:16 041 14.4
2020-Jan-24 12:11 032 14.4
2020-Jan-24 12:06 038 14.4
2020-Jan-24 12:01 339 14.4
2020-Jan-24 11:56 056 14.4
2020-Jan-24 11:51 023 14.4
2020-Jan-24 11:46 046 14.4
2020-Jan-24 11:41 355 14.4
2020-Jan-24 11:36 049 14.4
2020-Jan-24 11:31 046 14.4
2020-Jan-24 11:26 016 14.4
2020-Jan-24 11:21 005 14.4
2020-Jan-24 11:16 354 14.4
2020-Jan-24 11:11 016 14.4
2020-Jan-24 11:06 026 14.4
2020-Jan-24 11:01 335 13.9
2020-Jan-24 10:56 046 13.9
2020-Jan-24 10:51 321 13.3
2020-Jan-24 10:46 027 13.3
2020-Jan-24 10:41 034 13.3
2020-Jan-24 10:36 016 13.3
2020-Jan-24 10:31 046 13.3
2020-Jan-24 10:26 015 13.3
2020-Jan-24 10:21 029 13.3
2020-Jan-24 10:16 010 12.8
2020-Jan-24 10:11 004 12.8
2020-Jan-24 10:06 031 12.8
2020-Jan-24 10:01 018 12.8
2020-Jan-24 09:56 020 12.8
2020-Jan-24 09:51 355 12.8
2020-Jan-24 09:46 352 12.8
2020-Jan-24 09:41 342 12.8
2020-Jan-24 09:36 020 12.2
2020-Jan-24 09:31 008 12.2
2020-Jan-24 09:26 356 12.2
2020-Jan-24 09:21 152 12.2
2020-Jan-24 09:16 152 12.2
2020-Jan-24 09:11 153 11.7
2020-Jan-24 09:06 152 11.7
2020-Jan-24 09:01 153 11.7
2020-Jan-24 08:56 152 11.1
2020-Jan-24 08:51 152 10.6
2020-Jan-24 08:46 152 10.6
2020-Jan-24 08:41 152 10.6
2020-Jan-24 08:36 152 10.0
2020-Jan-24 08:31 153 10.0
2020-Jan-24 08:26 079 10.6
2020-Jan-24 08:21 077 10.6
2020-Jan-24 08:16 028 10.6
2020-Jan-24 08:11 013 10.0
2020-Jan-24 08:06 015 9.4
2020-Jan-24 08:01 342 9.4
2020-Jan-24 07:56 342 8.9
2020-Jan-24 07:51 342 9.4
2020-Jan-24 07:46 338 9.4
2020-Jan-24 07:41 344 8.9
2020-Jan-24 07:36 326 8.9
2020-Jan-24 07:26 352 8.9
2020-Jan-24 07:21 352 8.3
2020-Jan-24 07:16 327 8.3
2020-Jan-24 07:11 264 8.3
2020-Jan-24 07:06 153 8.3
2020-Jan-24 07:01 153 8.3
2020-Jan-24 06:56 215 8.3
2020-Jan-24 06:51 278 7.8
2020-Jan-24 06:46 280 7.2
2020-Jan-24 06:41 236 7.2
2020-Jan-24 06:36 236 7.2
2020-Jan-24 06:31 357 6.7
2020-Jan-24 06:26 357 6.7
2020-Jan-24 06:21 356 6.7
2020-Jan-24 06:17 357 6.7
2020-Jan-24 06:11 357 6.7
2020-Jan-24 06:06 357 6.7
2020-Jan-24 06:02 357 6.7
2020-Jan-24 05:56 356 7.2
2020-Jan-24 05:51 357 7.2
2020-Jan-24 05:46 357 7.2
2020-Jan-24 05:41 342 7.8
2020-Jan-24 05:36 343 8.3
2020-Jan-24 05:31 342 8.3
2020-Jan-24 05:26 328 8.3
2020-Jan-24 05:21 338 8.9
2020-Jan-24 05:16 336 8.9
2020-Jan-24 05:11 338 8.9
2020-Jan-24 05:06 342 9.4
2020-Jan-24 05:01 332 9.4
2020-Jan-24 04:56 318 8.9
2020-Jan-24 04:51 335 8.9
2020-Jan-24 04:46 338 8.9
2020-Jan-24 04:41 009 9.4
2020-Jan-24 04:36 346 9.4
2020-Jan-24 04:31 342 9.4
2020-Jan-24 04:26 329 9.4
2020-Jan-24 04:21 353 9.4
2020-Jan-24 04:16 016 9.4
2020-Jan-24 04:11 015 9.4
2020-Jan-24 04:06 326 9.4
2020-Jan-24 03:56 008 9.4
2020-Jan-24 03:51 335 9.4
2020-Jan-24 03:46 004 9.4
2020-Jan-24 03:41 346 9.4
2020-Jan-24 03:36 347 9.4
2020-Jan-24 03:31 356 9.4
2020-Jan-24 03:26 347 9.4
2020-Jan-24 03:21 348 9.4
2020-Jan-24 03:16 349 9.4
2020-Jan-24 03:11 342 10.0
2020-Jan-24 03:06 333 10.0
2020-Jan-24 03:01 335 10.0
2020-Jan-24 02:56 340 10.0
2020-Jan-24 02:51 335 10.0
2020-Jan-24 02:46 353 10.0
2020-Jan-24 02:41 354 10.0
2020-Jan-24 02:36 344 10.0
2020-Jan-24 02:31 345 10.0
2020-Jan-24 02:26 350 10.0
2020-Jan-24 02:21 350 10.6
2020-Jan-24 02:16 346 10.6
2020-Jan-24 02:11 354 10.6
2020-Jan-24 02:06 008 10.6
2020-Jan-24 02:01 034 10.6
2020-Jan-24 01:56 319 10.6
2020-Jan-24 01:51 346 10.0
2020-Jan-24 01:46 001 10.0
2020-Jan-24 01:41 331 10.0
2020-Jan-24 01:36 050 10.0
2020-Jan-24 01:31 356 10.0
2020-Jan-24 01:26 025 10.0
2020-Jan-24 01:21 008 10.0
2020-Jan-24 01:16 034 10.6
2020-Jan-24 01:11 359 10.6
2020-Jan-24 01:06 355 10.6
2020-Jan-24 01:01 356 10.6
2020-Jan-24 00:56 016 10.6
2020-Jan-24 00:51 006 10.6
2020-Jan-24 00:46 349 10.6
2020-Jan-24 00:41 342 10.6
2020-Jan-24 00:36 011 10.6
2020-Jan-24 00:31 012 10.6
2020-Jan-24 00:26 004 10.6
2020-Jan-24 00:21 012 10.6
2020-Jan-24 00:16 044 10.0
2020-Jan-24 00:11 353 10.0
2020-Jan-24 00:06 018 10.0
2020-Jan-24 00:01 355 10.0
2020-Jan-23 23:56 360 10.0
2020-Jan-23 23:51 345 10.0
2020-Jan-23 23:46 005 10.0
2020-Jan-23 23:41 357 10.0
2020-Jan-23 23:36 026 10.0
2020-Jan-23 23:31 352 10.0
2020-Jan-23 23:26 001 10.0
2020-Jan-23 23:21 022 10.0
2020-Jan-23 23:11 032 10.6
2020-Jan-23 23:06 006 10.6
2020-Jan-23 23:01 020 10.6
2020-Jan-23 22:56 025 10.6
2020-Jan-23 22:51 030 10.6
2020-Jan-23 22:46 015 10.6
2020-Jan-23 22:41 349 10.6
2020-Jan-23 22:36 333 10.6
2020-Jan-23 22:31 339 10.6
2020-Jan-23 22:26 015 10.6
2020-Jan-23 22:21 346 10.6
2020-Jan-23 22:16 009 10.6
2020-Jan-23 22:11 340 10.6
2020-Jan-23 22:06 347 10.6
2020-Jan-23 22:01 326 10.6
2020-Jan-23 21:56 015 10.6
2020-Jan-23 21:51 024 10.0
2020-Jan-23 21:46 008 10.0
2020-Jan-23 21:41 023 10.0
2020-Jan-23 21:36 017 10.0
2020-Jan-23 21:31 016 10.0
2020-Jan-23 21:26 008 10.0
2020-Jan-23 21:21 342 10.0
2020-Jan-23 21:16 006 10.0
2020-Jan-23 21:11 353 10.0
2020-Jan-23 21:06 322 10.0
2020-Jan-23 21:01 005 10.6
2020-Jan-23 20:56 008 10.6
2020-Jan-23 20:51 018 10.6
2020-Jan-23 20:46 013 10.6
2020-Jan-23 20:41 355 10.6
2020-Jan-23 20:36 001 10.6
2020-Jan-23 20:31 008 10.6
2020-Jan-23 20:26 349 10.6
2020-Jan-23 20:21 335 10.6
2020-Jan-23 20:16 006 10.6
2020-Jan-23 20:11 358 10.6
2020-Jan-23 20:06 037 10.6
2020-Jan-23 20:01 338 10.6
2020-Jan-23 19:56 008 10.6
2020-Jan-23 19:51 015 10.6
2020-Jan-23 19:46 025 10.6
2020-Jan-23 19:41 030 10.6
2020-Jan-23 19:36 029 10.6
2020-Jan-23 19:31 360 11.1
2020-Jan-23 19:26 326 11.1
2020-Jan-23 19:16 005 11.1
2020-Jan-23 19:11 359 11.1
2020-Jan-23 19:06 023 11.1
2020-Jan-23 19:01 041 11.7
2020-Jan-23 18:56 005 11.7
2020-Jan-23 18:51 016 11.7
2020-Jan-23 18:46 352 11.7
2020-Jan-23 18:41 001 11.7
2020-Jan-23 18:36 359 11.7
2020-Jan-23 18:31 034 11.7
2020-Jan-23 18:26 005 11.7
2020-Jan-23 18:21 012 11.7
2020-Jan-23 18:16 019 11.7
2020-Jan-23 18:11 022 11.7
2020-Jan-23 18:06 026 11.7
2020-Jan-23 18:01 019 12.2
2020-Jan-23 17:56 055 12.2
2020-Jan-23 17:51 016 12.2
2020-Jan-23 17:46 333 12.2
2020-Jan-23 17:41 020 12.2
2020-Jan-23 17:36 351 12.2
2020-Jan-23 17:31 022 12.2
2020-Jan-23 17:26 356 12.2
2020-Jan-23 17:21 008 12.2
2020-Jan-23 17:16 358 12.2
2020-Jan-23 17:11 031 12.8
2020-Jan-23 17:06 028 12.8
2020-Jan-23 17:01 020 12.8
2020-Jan-23 16:56 008 12.8
2020-Jan-23 16:51 026 12.8
2020-Jan-23 16:46 044 12.8
2020-Jan-23 16:41 020 12.8
2020-Jan-23 16:36 069 12.8
2020-Jan-23 16:31 039 12.8
2020-Jan-23 16:26 290 13.3
2020-Jan-23 16:21 068 13.3
2020-Jan-23 16:16 044 13.3
2020-Jan-23 16:11 068 13.3
2020-Jan-23 16:06 013 13.3
2020-Jan-23 16:01 004 13.3
2020-Jan-23 15:56 112 13.3
2020-Jan-23 15:51 042 13.3
2020-Jan-23 15:46 176 13.9
2020-Jan-23 15:41 020 13.9
2020-Jan-23 15:36 314 13.9
2020-Jan-23 15:31 051 13.9
2020-Jan-23 15:26 109 13.9
2020-Jan-23 15:21 011 13.9
2020-Jan-23 15:16 339 13.9
2020-Jan-23 15:11 063 13.9
2020-Jan-23 15:06 057 13.9
2020-Jan-23 15:01 033 13.9
2020-Jan-23 14:56 020 13.9
2020-Jan-23 14:51 032 13.9
2020-Jan-23 14:46 029 13.9
2020-Jan-23 14:41 342 13.9
2020-Jan-23 14:36 016 13.9
2020-Jan-23 14:31 321 13.9
2020-Jan-23 14:26 012 13.9
2020-Jan-23 14:21 356 14.4
2020-Jan-23 14:16 115 14.4
2020-Jan-23 14:11 043 14.4
2020-Jan-23 14:06 330 14.4
2020-Jan-23 14:01 042 14.4
2020-Jan-23 13:56 304 14.4
2020-Jan-23 13:51 037 14.4
2020-Jan-23 13:41 079 14.4
2020-Jan-23 13:36 004 14.4
2020-Jan-23 13:31 058 14.4
2020-Jan-23 13:26 098 15.0
2020-Jan-23 13:21 071 15.0
2020-Jan-23 13:16 013 15.0
2020-Jan-23 13:11 056 15.0
2020-Jan-23 13:06 077 15.0
2020-Jan-23 13:01 116 15.0
2020-Jan-23 12:56 060 15.0
2020-Jan-23 12:51 160 14.4
2020-Jan-23 12:46 057 13.9
2020-Jan-23 12:41 069 13.3
2020-Jan-23 12:36 046 13.3
2020-Jan-23 12:31 001 13.3
2020-Jan-23 12:26 329 13.3
2020-Jan-23 12:21 011 13.3
2020-Jan-23 12:16 318 13.9
2020-Jan-23 12:11 026 13.9
2020-Jan-23 12:06 049 14.4
2020-Jan-23 12:01 020 14.4
2020-Jan-23 11:51 047 14.4
2020-Jan-23 11:46 063 14.4
2020-Jan-23 11:41 098 14.4
2020-Jan-23 11:36 038 14.4
2020-Jan-23 11:32 105 14.4
2020-Jan-23 11:26 088 13.9
2020-Jan-23 11:21 292 13.3
2020-Jan-23 11:16 006 13.3
2020-Jan-23 11:11 027 13.3
2020-Jan-23 11:06 224 13.3
2020-Jan-23 11:01 005 13.3
2020-Jan-23 10:56 348 13.3
2020-Jan-23 10:51 049 12.8
2020-Jan-23 10:46 022 12.8
2020-Jan-23 10:41 011 12.8
2020-Jan-23 10:36 023 12.2
2020-Jan-23 10:31 351 12.2
2020-Jan-23 10:26 015 12.2
2020-Jan-23 10:21 012 12.2
2020-Jan-23 10:16 006 12.2
2020-Jan-23 10:11 020 11.7
2020-Jan-23 10:06 038 11.1
2020-Jan-23 10:01 025 11.1
2020-Jan-23 09:56 035 10.6
2020-Jan-23 09:51 122 10.6
2020-Jan-23 09:46 121 10.6
2020-Jan-23 09:41 117 10.6
2020-Jan-23 09:36 079 10.6
2020-Jan-23 09:31 079 10.6
2020-Jan-23 09:26 079 10.6
2020-Jan-23 09:21 079 10.6
2020-Jan-23 09:16 232 10.6
2020-Jan-23 09:11 232 10.0
2020-Jan-23 09:06 232 10.0
2020-Jan-23 09:01 232 9.4
2020-Jan-23 08:56 121 9.4
2020-Jan-23 08:51 122 9.4
2020-Jan-23 08:46 120 8.9
2020-Jan-23 08:41 012 8.9
2020-Jan-23 08:36 012 8.9
2020-Jan-23 08:31 012 8.3
2020-Jan-23 08:26 012 8.3
2020-Jan-23 08:21 012 7.8
2020-Jan-23 08:16 012 7.2
2020-Jan-23 08:11 012 6.7
2020-Jan-23 08:06 012 6.7
2020-Jan-23 08:01 012 6.1
2020-Jan-23 07:56 012 6.1
2020-Jan-23 07:51 012 6.1
2020-Jan-23 07:46 012 6.1
2020-Jan-23 07:41 012 6.1
2020-Jan-23 07:36 012 6.1
2020-Jan-23 07:31 012 6.1
2020-Jan-23 07:26 012 6.1
2020-Jan-23 07:21 012 6.1
2020-Jan-23 07:16 012 5.6
2020-Jan-23 07:11 012 5.6
2020-Jan-23 07:06 012 5.6
2020-Jan-23 07:01 018 5.6
2020-Jan-23 06:56 106 5.6
2020-Jan-23 06:51 106 6.1
2020-Jan-23 06:46 349 6.1
2020-Jan-23 06:41 337 6.1
2020-Jan-23 06:36 349 5.6
2020-Jan-23 06:31 330 5.6
2020-Jan-23 06:26 340 5.6
2020-Jan-23 06:21 353 5.6
2020-Jan-23 06:16 345 5.6
2020-Jan-23 06:11 345 5.6
2020-Jan-23 06:06 345 5.6
2020-Jan-23 06:01 345 6.1
2020-Jan-23 05:56 345 6.1
2020-Jan-23 05:51 344 6.1
2020-Jan-23 05:46 344 6.1
2020-Jan-23 05:41 353 6.1
2020-Jan-23 05:36 356 5.6
2020-Jan-23 05:31 356 5.6
2020-Jan-23 05:26 355 5.6
2020-Jan-23 05:21 355 5.6
2020-Jan-23 05:16 356 5.6
2020-Jan-23 05:11 356 6.1
2020-Jan-23 05:06 349 5.6
2020-Jan-23 05:01 349 6.1
2020-Jan-23 04:56 349 6.1
2020-Jan-23 04:51 349 6.7
2020-Jan-23 04:46 337 6.1
2020-Jan-23 04:41 246 6.1
2020-Jan-23 04:36 245 6.7
2020-Jan-23 04:31 245 6.7
2020-Jan-23 04:26 246 6.7
2020-Jan-23 04:21 246 6.7
2020-Jan-23 04:16 245 6.7
2020-Jan-23 04:11 245 7.2
2020-Jan-23 04:06 246 7.2
2020-Jan-23 04:01 245 7.2
2020-Jan-23 03:56 245 7.2
2020-Jan-23 03:51 246 7.2
2020-Jan-23 03:41 236 7.2
2020-Jan-23 03:36 232 7.2
2020-Jan-23 03:31 235 6.7
2020-Jan-23 03:26 226 7.2
2020-Jan-23 03:21 226 7.2
2020-Jan-23 03:16 226 7.2
2020-Jan-23 03:06 222 7.2
2020-Jan-23 03:01 222 7.2
2020-Jan-23 02:56 222 7.2
2020-Jan-23 02:51 222 7.2
2020-Jan-23 02:46 222 7.8
2020-Jan-23 02:41 243 7.2
2020-Jan-23 02:36 212 7.2
2020-Jan-23 02:32 238 7.2
2020-Jan-23 02:26 326 7.2
2020-Jan-23 02:21 326 7.2
2020-Jan-23 02:16 326 7.2
2020-Jan-23 02:11 326 7.2
2020-Jan-23 02:06 326 7.8
2020-Jan-23 02:01 326 7.8
2020-Jan-23 01:56 326 7.8
2020-Jan-23 01:51 326 7.8
2020-Jan-23 01:46 326 7.8
2020-Jan-23 01:41 326 7.8
2020-Jan-23 01:31 326 7.2
2020-Jan-23 01:26 243 7.2
2020-Jan-23 01:21 245 7.2
2020-Jan-23 01:16 243 7.2
2020-Jan-23 01:11 243 7.2
2020-Jan-23 01:06 245 7.2
2020-Jan-23 01:01 245 7.2
2020-Jan-23 00:56 243 7.2
2020-Jan-23 00:51 242 7.2
2020-Jan-23 00:46 242 7.2
2020-Jan-23 00:41 242 7.2
2020-Jan-23 00:36 242 7.2
2020-Jan-23 00:31 242 7.2
2020-Jan-23 00:26 242 7.2
2020-Jan-23 00:21 241 7.2
2020-Jan-23 00:16 242 7.2
2020-Jan-23 00:11 242 7.8
2020-Jan-23 00:06 242 7.8
2020-Jan-23 00:01 242 7.8
2020-Jan-22 23:56 242 7.8
2020-Jan-22 23:51 242 7.8
2020-Jan-22 23:46 241 7.8
2020-Jan-22 23:41 242 7.8
2020-Jan-22 23:36 242 7.8
2020-Jan-22 23:31 242 8.3
2020-Jan-22 23:26 242 8.3
2020-Jan-22 23:21 242 8.3
2020-Jan-22 23:16 242 8.3
2020-Jan-22 23:11 242 8.3
2020-Jan-22 23:06 242 8.3
2020-Jan-22 23:01 242 8.3
2020-Jan-22 22:56 242 8.3
2020-Jan-22 22:51 241 8.3
2020-Jan-22 22:46 242 8.3
2020-Jan-22 22:41 242 8.3
2020-Jan-22 22:36 242 8.3
2020-Jan-22 22:31 242 8.3
2020-Jan-22 22:26 242 8.3
2020-Jan-22 22:21 242 8.3
2020-Jan-22 22:16 242 8.9
2020-Jan-22 22:11 242 8.9
2020-Jan-22 22:06 242 8.9
2020-Jan-22 22:01 242 9.4